This demonstration page uses our WeatherBlox Daily Observations layout. Learn more.

Left ArrowRight Arrow

39.01783, -85.05884

Hourly Observations for June 27, 2017

Temp ( °F °C ) Dew Point ( °F °C ) Humidity (%) Winds ( mph kmh ) Pressure ( in mb ) Visibility ( mi km ) Precip ( " mm )
12:52 am 00:52 Mostly Clear 60 15.6 49 9.4 67 67 SW 5 7 30.08 1019 10 16 N/A
1:52 am 01:52 Mostly Clear 59 15 49 9.4 69 69 SW 5 7 30.07 1018 10 16 N/A
2:52 am 02:52 Clear 56 13.3 50 10 81 81 NNW 6 9 30.08 1019 10 16 N/A
3:52 am 03:52 Clear 55 12.8 49 9.4 80 80 W 7 11 30.07 1018 10 16 N/A
4:52 am 04:52 Clear 51 10.6 49 9.4 92 92 SSW 3 6 30.08 1019 10 16 N/A
5:52 am 05:52 Clear 52 11.1 49 9.4 89 89 SW 5 7 30.10 1019 10 16 N/A
6:52 am 06:52 Sunny 54 12.2 50 10 87 87 W 3 6 30.11 1020 10 16 N/A
7:52 am 07:52 Sunny 57 13.9 52 11.1 83 83 W 6 9 30.12 1020 10 16 N/A
8:52 am 08:52 Sunny 62 16.7 52 11.1 70 70 WNW 5 7 30.13 1020 10 16 N/A
9:52 am 09:52 Mostly Sunny 64 17.8 48 8.9 56 56 NNW 6 9 30.14 1021 10 16 N/A
10:52 am 10:52 Mostly Sunny 66 18.9 50 10 56 56 NNW 9 15 30.14 1021 10 16 N/A
11:52 am 11:52 Partly Cloudy 68 20 51 10.6 55 55 VRB 6 9 30.14 1021 10 16 N/A
12:52 pm 12:52 Partly Cloudy 69 20.6 50 10 51 51 NW 8 13 30.13 1020 10 16 N/A
1:52 pm 13:52 Mostly Cloudy 72 22.2 51 10.6 48 48 NW 10 17 30.13 1020 10 16 N/A
2:52 pm 14:52 Mostly Cloudy 71 21.7 50 10 47 47 N 3 6 30.12 1020 10 16 N/A
3:52 pm 15:52 Mostly Cloudy 71 21.7 50 10 47 47 N 6 9 30.11 1020 10 16 N/A
4:52 pm 16:52 Mostly Cloudy 74 23.3 50 10 43 43 N 5 7 30.10 1019 10 16 N/A
5:52 pm 17:52 Mostly Cloudy 74 23.3 49 9.4 41 41 NNW 8 13 30.09 1019 10 16 N/A
6:52 pm 18:52 Mostly Cloudy 73 22.8 48 8.9 41 41 W 9 15 30.08 1019 10 16 N/A
7:52 pm 19:52 Mostly Sunny 72 22.2 48 8.9 43 43 N 3 6 30.08 1019 10 16 N/A
8:52 pm 20:52 Mostly Sunny 68 20 49 9.4 51 51 W 3 6 30.08 1019 10 16 N/A
9:52 pm 21:52 Mostly Clear 61 16.1 52 11.1 72 72 N N/A 30.09 1019 10 16 N/A
10:52 pm 22:52 Mostly Clear 63 17.2 51 10.6 65 65 N N/A 30.09 1019 10 16 N/A
11:52 pm 23:52 Clear 62 16.7 50 10 65 65 N N/A 30.11 1020 10 16 N/A

Powered by AerisWeather